Weather History for PAKW - August, 2014

Change the Weather History Date:

Sunday, August 10, 2014

  Actual Average Record
Temperature  
Mean Temperature 60 °F -  
Max Temperature 64 °F 63 °F 84 °F (2005)
Min Temperature 57 °F 50 °F 46 °F (2011)
Degree Days  
Heating Degree Days 4    
Growing Degree Days 10 (Base 50)    
Moisture  
Dew Point 60 °F    
Average Humidity 93    
Maximum Humidity 100    
Minimum Humidity 86    
Precipitation  
Precipitation 2.68 in - - ()
Sea Level Pressure  
Sea Level Pressure 29.97 in    
Wind  
Wind Speed 4 mph (ESE)    
Max Wind Speed 9 mph    
Max Gust Speed 21 mph    
Visibility 4 miles    
Events Rain    
Averages and records for this station are not official NWS values.
T = Trace of Precipitation, MM = Missing Value Source: NWS Daily Summary

Daily Weather History Graph

Daily Weather History Graph

Search for Another Location

Airport or City:

Trip Planner

Search our weather history database for the weather conditions in past years. The results will help you decide how hot, cold, wet, or windy it might be!

Date:

Astronomy

Aug. 10, 2014 Rise Set
Actual Time 5:15 AM AKDT 8:38 PM AKDT
Civil Twilight 4:31 AM AKDT 9:22 PM AKDT
Nautical Twilight 3:30 AM AKDT 10:22 PM AKDT
Astronomical Twilight 1:51 AM AKDT 11:56 PM AKDT
Moon 8:12 PM AKDT (8/10) 5:27 AM AKDT (8/10)
Length of Visible Light 16h 51m
Length of Day
15h 22m
Full, 100% of the Moon is Illuminated
Aug 10
Full
Aug 17
Last Quarter
Aug 25
New
Sep 2
First Quarter
Sep 8
Full

Hourly Weather History & Observations

Time (AKDT) Temp. Dew Point Humidity Pressure Visibility Wind Dir Wind Speed Gust Speed Precip Events Conditions
12:02 AM 60.1 °F 57.0 °F 90% 29.91 in 7.0 mi Calm Calm - 0.01 in Rain Rain
12:14 AM 60.1 °F 57.0 °F 90% 29.91 in 7.0 mi South 4.6 mph - 0.03 in Rain Light Rain
12:53 AM 59.0 °F 57.0 °F 93% 29.91 in 6.0 mi Variable 3.5 mph - 0.06 in Rain Light Rain
1:10 AM 57.9 °F 57.0 °F 97% 29.91 in 7.0 mi North 4.6 mph - 0.01 in Rain Light Rain
1:53 AM 57.9 °F 57.0 °F 97% 29.92 in 3.0 mi Variable 5.8 mph - 0.10 in Rain Heavy Rain
2:53 AM 57.9 °F 55.9 °F 93% 29.91 in 3.0 mi Calm Calm - 0.25 in Rain Heavy Rain
3:53 AM 60.1 °F 57.0 °F 90% 29.91 in 7.0 mi SSE 8.1 mph - 0.17 in Rain Light Rain
4:53 AM 60.1 °F 57.9 °F 93% 29.91 in 10.0 mi SSE 8.1 mph - 0.05 in Rain Light Rain
5:10 AM 61.0 °F 57.9 °F 90% 29.91 in 10.0 mi SSE 8.1 mph 19.6 mph 0.01 in Rain Light Rain
5:17 AM 61.0 °F 57.9 °F 90% 29.91 in 10.0 mi SSE 9.2 mph 19.6 mph 0.01 in Rain Light Rain
5:53 AM 62.1 °F 57.9 °F 86% 29.91 in 10.0 mi South 9.2 mph 20.7 mph 0.01 in Rain Light Rain
6:46 AM 62.1 °F 57.9 °F 86% 29.92 in 10.0 mi SSE 5.8 mph - 0.02 in Rain Light Rain
6:53 AM 61.0 °F 57.9 °F 90% 29.91 in 8.0 mi Variable 5.8 mph - 0.02 in Rain Light Rain
7:31 AM 62.1 °F 57.9 °F 86% 29.92 in 9.0 mi SSE 8.1 mph - 0.03 in Rain Light Rain
7:53 AM 61.0 °F 57.9 °F 90% 29.92 in 8.0 mi Variable 4.6 mph - 0.04 in Rain Light Rain
8:53 AM 61.0 °F 57.9 °F 90% 29.93 in 5.0 mi Calm Calm - 0.08 in Rain Rain
9:04 AM 61.0 °F 57.9 °F 90% 29.92 in 4.0 mi Calm Calm - 0.02 in Rain Rain
9:13 AM 61.0 °F 57.9 °F 90% 29.92 in 4.0 mi Variable 5.8 mph - 0.03 in Rain Light Rain
9:53 AM 61.0 °F 59.0 °F 93% 29.93 in 4.0 mi Calm Calm - 0.11 in Rain Rain
10:34 AM 62.1 °F 60.1 °F 93% 29.93 in 4.0 mi Variable 4.6 mph - 0.10 in Rain Rain
10:53 AM 62.1 °F 60.1 °F 93% 29.94 in 4.0 mi Variable 5.8 mph - 0.13 in Rain Rain
11:08 AM 63.0 °F 60.1 °F 90% 29.94 in 4.0 mi Variable 5.8 mph - 0.03 in Rain Rain
11:53 AM 63.0 °F 60.1 °F 90% 29.95 in 3.0 mi Variable 5.8 mph - 0.15 in Rain Rain
12:17 PM 63.0 °F 61.0 °F 93% 29.95 in 4.0 mi Variable 4.6 mph - 0.05 in Rain Rain
12:53 PM 63.0 °F 61.0 °F 93% 29.96 in 2.5 mi South 4.6 mph - 0.12 in Rain Heavy Rain
1:00 PM 63.0 °F 61.0 °F 93% 29.96 in 2.0 mi Variable 6.9 mph - 0.02 in Rain Rain
1:49 PM 64.4 °F 60.8 °F 88% 29.97 in 4.0 mi Variable 4.6 mph - 0.18 in Rain Rain
1:53 PM 64.0 °F 61.0 °F 90% 29.97 in 5.0 mi Variable 5.8 mph - 0.18 in Rain Light Rain
2:25 PM 64.0 °F 61.0 °F 90% 29.98 in 2.5 mi Variable 4.6 mph - 0.08 in Rain Rain
2:33 PM 64.0 °F 61.0 °F 90% 29.98 in 4.0 mi South 5.8 mph - 0.10 in Rain Rain
2:44 PM 64.0 °F 61.0 °F 90% 29.98 in 3.0 mi SSE 6.9 mph - 0.13 in Rain Rain
2:53 PM 64.0 °F 61.0 °F 90% 29.98 in 4.0 mi Variable 5.8 mph - 0.15 in Rain Rain
3:53 PM 64.0 °F 61.0 °F 90% 29.98 in 7.0 mi South 5.8 mph - 0.06 in Rain Light Rain
4:53 PM 64.0 °F 62.1 °F 93% 29.99 in 2.5 mi Variable 5.8 mph - 0.06 in Rain Rain
5:02 PM 64.0 °F 62.1 °F 93% 29.99 in 5.0 mi South 4.6 mph - 0.01 in Rain Light Rain
5:18 PM 64.0 °F 62.1 °F 93% 29.99 in 2.5 mi Variable 4.6 mph - 0.04 in Rain Rain
5:31 PM 64.0 °F 62.1 °F 93% 29.99 in 3.0 mi SSE 4.6 mph - 0.06 in Rain Rain
5:40 PM 64.0 °F 62.1 °F 93% 29.99 in 2.5 mi SSE 6.9 mph - 0.10 in Rain Heavy Rain
5:53 PM 64.0 °F 62.1 °F 93% 29.99 in 2.5 mi Variable 4.6 mph - 0.13 in Rain Rain
6:02 PM 64.0 °F 62.1 °F 93% 29.98 in 2.0 mi SSE 6.9 mph - 0.01 in Rain Rain
6:14 PM 64.0 °F 62.1 °F 93% 29.99 in 4.0 mi Variable 6.9 mph - 0.03 in Rain Light Rain
6:37 PM 64.0 °F 62.1 °F 93% 29.99 in 3.0 mi SSE 6.9 mph - 0.07 in Rain Rain
6:53 PM 64.0 °F 62.1 °F 93% 29.99 in 3.0 mi Variable 4.6 mph - 0.09 in Rain Light Rain
7:01 PM 64.0 °F 62.1 °F 93% 29.99 in 2.0 mi Variable 5.8 mph - 0.02 in Rain Rain
7:28 PM 64.0 °F 62.1 °F 93% 29.99 in 3.0 mi Variable 3.5 mph - 0.10 in Rain Rain
7:38 PM 64.0 °F 62.1 °F 93% 29.99 in 4.0 mi Variable 3.5 mph - 0.11 in Rain Light Rain
7:53 PM 63.0 °F 62.1 °F 97% 29.99 in 2.0 mi Calm Calm - 0.16 in Rain Heavy Rain
8:31 PM 62.1 °F 61.0 °F 96% 30.00 in 4.0 mi North 4.6 mph - 0.14 in Rain Light Rain
8:43 PM 61.0 °F 60.1 °F 97% 30.01 in 3.0 mi Variable 3.5 mph - 0.15 in Rain Light Rain
8:50 PM 60.8 °F 60.8 °F 100% 30.01 in 3.0 mi Calm Calm - 0.16 in Rain Light Rain
8:53 PM 61.0 °F 59.0 °F 93% 30.01 in 3.0 mi North 3.5 mph - 0.17 in Rain Light Rain
8:57 PM 61.0 °F 59.0 °F 93% 30.01 in 3.0 mi Calm Calm - 0.00 in Rain Light Rain
9:18 PM 60.1 °F 59.0 °F 96% 30.01 in 2.5 mi NNE 5.8 mph - 0.05 in Rain Rain
9:25 PM 60.1 °F 59.0 °F 96% 30.01 in 6.0 mi North 4.6 mph - 0.05 in Rain Light Rain
9:53 PM 60.1 °F 59.0 °F 96% 30.02 in 4.0 mi NNE 3.5 mph - 0.10 in Rain Rain
10:53 PM 60.1 °F 59.0 °F 96% 30.03 in 3.0 mi NE 4.6 mph - 0.13 in Rain Rain
10:57 PM 60.1 °F 59.0 °F 96% 30.03 in 2.5 mi NE 3.5 mph - 0.02 in Rain Rain
11:11 PM 60.1 °F 59.0 °F 96% 30.03 in 3.0 mi Variable 3.5 mph - 0.06 in Rain Rain
11:16 PM 60.1 °F 57.9 °F 93% 30.03 in 2.5 mi NNE 5.8 mph - 0.08 in Rain Rain
11:32 PM 60.1 °F 59.0 °F 96% 30.03 in 3.0 mi NE 3.5 mph - 0.13 in Rain Rain
11:40 PM 60.1 °F 59.0 °F 96% 30.03 in 4.0 mi North 5.8 mph - 0.14 in Rain Light Rain
11:49 PM 60.8 °F 59.0 °F 94% 30.03 in 4.0 mi Calm Calm - 0.15 in Rain Light Rain
11:53 PM 60.1 °F 57.9 °F 93% 30.03 in 4.0 mi NE 6.9 mph - 0.16 in Rain Rain